This is the latest recevied weather packets stored in our database for station/object WZ9ZZZ-1. If no packets are shown the sender has not sent any weather packets the latest 10 day(s).
| Time | Temp. | Humidity | Pressure | Rain* | Wind** | Luminosity | Snow |
|---|---|---|---|---|---|---|---|
| 1777160108 | 27.22° C | 81% | 1011.1 hPa | 0 mm | - | 79 W/m² | - |
| 1777159804 | 27.78° C | 80% | 1010.9 hPa | 0 mm | - | 92 W/m² | - |
| 1777159500 | 27.78° C | 80% | 1011.1 hPa | 0 mm | - | 99 W/m² | - |
| 1777159197 | 28.33° C | 80% | 1010.9 hPa | 0 mm | - | 109 W/m² | - |
| 1777158894 | 28.33° C | 80% | 1011.2 hPa | 0 mm | - | 140 W/m² | - |
| 1777158591 | 27.78° C | 80% | 1011.1 hPa | 0 mm | - | 134 W/m² | - |
| 1777158287 | 28.33° C | 80% | 1011.1 hPa | 0 mm | - | 124 W/m² | - |
| 1777157984 | 28.33° C | 79% | 1011.2 hPa | 0 mm | - | 130 W/m² | - |
| 1777157680 | 28.89° C | 78% | 1011.3 hPa | 0 mm | - | 140 W/m² | - |
| 1777157377 | 28.89° C | 78% | 1010.7 hPa | 0 mm | - | 149 W/m² | - |
| 1777157071 | 28.89° C | 78% | 1010.9 hPa | 0 mm | - | 142 W/m² | - |
| 1777156766 | 28.33° C | 79% | 1010.9 hPa | 0 mm | - | 154 W/m² | - |
| 1777156462 | 28.89° C | 77% | 1010.7 hPa | 0 mm | - | 155 W/m² | - |
| 1777156159 | 28.89° C | 77% | 1010.9 hPa | 0 mm | - | 270 W/m² | - |
| 1777155855 | 29.44° C | 75% | 1010.7 hPa | 0 mm | - | 189 W/m² | - |
| 1777155550 | 28.89° C | 77% | 1010.8 hPa | 0 mm | - | 300 W/m² | - |
| 1777155248 | 28.89° C | 77% | 1010.7 hPa | 0 mm | - | 182 W/m² | - |
| 1777154945 | 29.44° C | 78% | 1010.8 hPa | 0 mm | - | 330 W/m² | - |
| 1777154642 | 30° C | 76% | 1010.8 hPa | 0 mm | - | 347 W/m² | - |
| 1777154339 | 29.44° C | 76% | 1010.8 hPa | 0 mm | - | 360 W/m² | - |
| 1777154033 | 29.44° C | 77% | 1010.7 hPa | 0 mm | - | 371 W/m² | - |
| 1777153730 | 28.89° C | 77% | 1010.8 hPa | 0 mm | - | 376 W/m² | - |
| 1777153426 | 28.89° C | 77% | 1010.7 hPa | 0 mm | - | 266 W/m² | - |
| 1777153122 | 30° C | 75% | 1010.8 hPa | 0 mm | - | 385 W/m² | - |
| 1777152819 | 30° C | 74% | 1010.9 hPa | 0 mm | - | 219 W/m² | - |
* Rain latest hour (hover to see other rain measurements)
** Current wind speed in m/s (hover to see current wind gust speed)